Temperature
15 15 15 15 15 15 14 14 14 14 14 14 14 14 14 14 14 14 14 14 13 13 13 13 13 13 13 12 12 12 12 12 12 11 11 11 10 10 10 10 10 10 10
15 14 14 14 14 14 14 14 14 14 14 14 14 14 14 14 14 14 13 13 13 13 13 13 13 13 13 12 12 12 12 12 12 11 11 10 10 10 10 10 10 10 10
14 14 14 14 14 14 14 14 14 14 14 14 14 14 13 13 13 14 13 13 13 13 13 13 13 13 13 12 12 12 12 12 12 11 11 10 10 10 10 10 10 9 9
14 14 14 14 14 13 13 14 14 14 13 13 13 13 13 13 13 13 13 13 13 13 13 13 13 13 12 12 12 12 12 12 11 11 11 10 10 10 10 10 9 9 9
14 14 14 13 13 13 13 13 13 13 13 13 13 13 13 13 13 13 13 13 13 12 13 13 12 12 12 12 12 12 11 11 11 11 10 10 10 10 10 9 9 9 9
14 13 13 13 13 13 13 13 13 13 13 13 13 13 13 13 13 13 13 13 12 12 12 12 12 12 12 12 12 12 11 11 11 11 10 10 10 10 10 9 9 9 9
13 13 13 13 13 13 13 13 13 13 13 13 12 12 12 13 13 13 12 12 12 12 12 12 12 12 12 12 12 12 11 11 11 11 10 10 10 10 10 9 9 9 9
13 13 13 13 13 13 13 13 13 12 12 12 12 12 12 12 12 12 12 12 12 12 12 12 11 11 11 11 11 11 11 11 11 10 10 10 10 10 10 9 9 9 8
13 13 13 13 12 13 12 12 12 12 12 12 12 12 12 12 12 12 12 11 11 11 11 11 11 11 11 11 11 11 11 11 11 10 10 10 10 10 9 9 9 9 8
12 12 12 12 12 12 12 12 12 12 12 12 12 11 11 11 11 11 11 11 11 11 11 11 11 11 11 11 10 10 10 10 10 10 10 10 9 9 9 9 9 8 8
12 12 12 12 12 12 12 12 12 12 11 11 11 11 11 11 11 11 11 11 11 11 10 10 11 11 10 10 10 10 10 10 10 9 9 9 9 9 9 9 9 8 8
12 12 12 12 12 11 11 11 11 11 11 11 11 11 11 11 11 11 11 10 10 10 10 10 10 10 10 10 10 10 10 10 9 9 9 9 9 9 9 8 8 8 8
11 11 11 11 11 11 11 11 11 11 11 10 10 10 10 10 10 10 10 10 10 10 10 10 10 10 10 10 10 10 9 9 9 9 8 8 8 8 8 8 8 8 8
11 11 11 11 11 11 11 10 10 10 10 10 10 10 10 10 10 10 10 10 10 9 9 9 9 9 9 9 9 9 9 9 8 8 8 8 8 8 8 8 8 8 7
11 11 11 11 10 10 10 10 10 10 10 10 10 10 10 9 10 10 10 9 9 9 9 9 9 8 8 9 9 9 9 8 8 8 8 8 8 8 8 8 7 7 7
11 10 10 10 10 10 10 10 10 10 10 10 10 10 9 10 10 9 9 9 9 9 9 8 8 8 8 8 8 8 8 8 8 8 8 7 7 7 7 7 7 7 7
10 10 10 10 10 10 10 10 9 9 10 10 10 10 9 9 9 9 9 9 9 9 8 8 8 8 8 8 8 8 8 8 8 8 7 7 7 7 7 7 7 7 6
10 10 10 10 10 10 9 9 9 9 9 9 9 9 9 9 9 9 9 9 8 8 8 8 8 8 7 7 7 7 7 8 7 7 7 7 7 7 6 6 6 6 6
10 10 10 9 9 9 9 9 9 9 9 9 9 9 9 9 9 8 8 8 8 8 8 7 7 7 7 7 7 7 7 7 7 7 7 7 7 6 6 6 6 6 6
10 10 9 9 9 9 9 9 9 9 8 8 8 9 9 8 8 8 8 8 8 7 7 7 7 7 7 7 7 7 7 7 7 7 7 6 6 6 6 6 6 6 6
9 9 9 9 9 9 8 8 8 8 8 8 8 8 8 8 8 8 8 8 7 7 7 7 7 7 7 7 7 7 7 6 6 6 6 6 6 6 6 6 5 5 5
9 9 9 9 9 8 8 8 8 8 8 8 8 8 7 7 7 7 7 7 7 7 7 7 7 7 7 7 6 6 6 6 6 6 6 6 6 6 6 5 5 5 5
8 8 8 8 8 8 8 8 8 8 7 7 7 7 7 7 7 7 7 7 6 6 6 6 6 6 6 6 6 6 6 6 6 6 6 6 6 6 5 5 5 5 5
8 8 8 8 8 8 8 7 7 7 7 7 7 7 7 7 6 6 6 6 6 6 6 6 6 6 6 6 6 6 6 6 6 6 6 5 5 5 5 5 5 5 5
8 8 7 7 7 7 7 7 7 7 7 7 6 6 6 6 6 6 6 6 6 6 6 6 6 6 6 6 6 6 6 6 6 6 5 5 5 5 5 5 5 5 4
7 7 7 7 7 6 6 6 6 6 6 6 6 6 6 6 6 6 6 5 5 6 6 6 6 6 6 6 6 6 6 6 6 5 5 5 5 5 5 4 4 4 4
Wind_Speed
4 4 4 3 3 3 3 2 2 2 3 3 4 4 4 4 4 4 4 4 4 4 4 4 4 3 3 3 3 3 3 2 2 1 1 2 3 2 3 3 3 3 5
4 4 4 3 3 3 3 3 3 3 3 3 3 4 4 4 4 4 4 5 5 5 4 3 3 3 4 3 3 3 2 2 3 3 2 2 3 3 3 3 2 2 3
4 4 4 4 4 4 3 3 3 3 3 3 4 4 4 4 4 4 5 5 5 4 4 4 4 4 4 3 4 3 2 2 2 3 3 2 2 3 3 2 2 1 2
4 4 5 4 4 4 3 3 3 3 3 3 3 4 4 4 3 4 4 4 4 4 4 4 4 4 4 4 4 4 3 3 3 3 3 3 3 3 3 3 2 2 1
5 5 4 4 4 3 3 3 2 3 3 3 3 3 3 3 3 3 3 3 4 4 3 3 2 1 1 2 2 3 3 3 4 4 4 3 3 3 4 3 3 3 2
5 5 4 4 4 4 4 3 2 2 3 3 3 3 3 2 2 1 3 3 4 3 3 3 2 3 3 3 2 2 2 4 4 4 4 4 4 4 4 4 4 3 3
5 5 5 5 5 5 4 3 3 4 3 3 3 3 3 2 4 2 3 3 3 3 3 3 2 2 3 4 5 6 4 3 4 5 4 4 4 4 5 5 5 4 3
6 5 5 5 5 4 4 4 4 4 4 3 4 3 2 3 4 3 3 4 3 3 3 3 3 3 3 3 4 4 4 4 5 5 4 4 3 3 5 5 5 4 3
6 6 6 5 5 5 5 4 4 4 4 3 3 4 4 4 4 4 3 3 3 3 2 2 3 3 2 3 4 4 4 3 3 4 1 1 2 2 4 4 5 5 4
6 6 6 6 6 6 5 5 4 4 4 3 3 4 4 4 4 5 4 3 3 2 2 2 1 1 2 3 4 5 5 4 4 4 4 4 5 6 8 7 6 5 4
5 6 6 6 6 6 5 4 4 4 4 4 3 3 4 3 4 4 4 3 3 3 2 2 2 3 3 3 5 4 4 4 4 4 4 4 4 4 6 7 6 6 5
5 5 6 6 5 4 4 4 4 4 4 4 4 3 3 3 3 4 4 4 4 4 3 3 2 3 3 4 4 2 3 4 4 4 4 4 4 4 4 6 6 7 6
5 5 5 5 5 5 5 5 5 4 4 4 4 4 3 3 3 4 5 5 5 4 3 1 2 4 4 4 5 5 5 5 4 5 5 4 4 4 4 4 5 6 6
6 5 5 5 5 5 4 5 5 5 5 5 4 4 4 4 4 4 4 4 5 5 4 3 4 4 5 4 4 5 5 4 5 5 5 4 4 4 4 4 5 5 5
6 6 6 5 5 5 5 5 6 6 5 6 5 5 5 5 4 4 4 5 5 4 4 4 4 4 4 4 4 4 4 5 5 5 5 5 5 5 5 4 5 5 6
6 6 5 5 5 5 5 4 3 4 4 5 5 5 5 4 4 5 5 5 4 5 4 5 5 5 6 6 6 5 5 5 5 5 5 5 5 5 5 5 5 6 7
6 6 5 5 5 5 5 5 4 3 4 5 6 6 6 4 5 6 6 6 6 7 5 5 5 5 5 5 6 6 6 6 6 6 6 6 6 6 6 6 6 6 7
6 6 5 5 5 5 6 6 5 5 4 4 5 7 6 5 5 5 6 5 4 6 6 6 6 6 5 6 6 6 5 5 6 6 6 6 6 6 7 7 7 7 7
5 5 5 5 5 5 5 5 5 6 5 4 4 4 6 5 5 5 7 5 5 6 6 6 6 6 6 6 6 6 6 6 7 7 7 7 7 7 7 7 7 8 8
4 4 5 5 5 5 5 6 6 6 6 5 5 4 4 4 4 5 6 6 6 6 6 7 6 6 6 6 6 6 7 7 7 7 7 7 7 7 8 9 8 8 8
4 4 5 5 5 5 6 6 6 6 6 5 5 5 5 5 6 7 6 6 6 7 7 7 7 7 7 6 7 7 8 7 7 7 7 7 7 8 8 8 8 8 8
4 4 4 5 5 5 5 5 6 6 6 6 5 5 6 6 6 6 6 7 7 7 7 6 7 7 7 7 7 7 7 8 7 7 7 7 7 8 8 8 8 8 8
4 4 4 4 4 5 5 5 5 5 6 6 5 5 5 6 6 6 6 6 6 6 7 7 7 7 7 8 8 8 8 8 7 7 7 7 7 7 8 8 10 9 9
4 4 4 4 4 4 5 5 5 5 6 6 6 6 6 6 6 6 6 6 6 6 7 7 8 9 10 9 8 9 9 9 8 7 8 8 8 7 8 8 9 9 9
4 4 4 4 4 4 5 5 5 6 6 6 6 6 6 6 6 6 6 6 7 7 8 8 7 9 11 12 10 10 9 9 9 8 8 7 8 8 8 8 8 8 9
4 4 4 4 4 4 5 5 6 6 6 6 5 6 6 6 6 6 6 6 6 6 7 7 8 9 10 10 10 10 9 9 10 10 9 7 7 7 8 7 9 8 9
Wind_Direction
190 199 206 207 217 215 211 214 218 217 203 197 202 204 197 198 203 200 207 208 214 220 224 229 234 235 224 220 220 221 232 237 209 204 157 158 164 161 140 131 122 122 110
196 198 204 206 210 217 213 214 215 211 206 208 205 203 202 207 208 208 211 215 219 224 229 226 227 220 221 220 220 221 221 226 205 189 180 182 184 178 164 158 147 134 122
197 202 201 207 214 217 214 207 210 209 206 205 202 204 209 209 206 208 218 219 220 228 235 235 231 219 219 211 214 218 216 203 189 186 182 174 184 180 172 167 171 161 153
197 204 207 210 216 219 209 207 210 209 208 207 204 207 208 209 210 208 218 219 223 227 236 242 238 229 228 216 214 212 204 193 188 187 182 183 179 183 192 189 185 185 187
199 206 209 209 207 209 206 210 212 213 212 211 209 209 204 207 206 208 217 221 221 222 227 235 238 229 302 233 223 214 205 199 190 191 190 188 190 186 202 202 197 196 196
206 208 202 208 204 209 210 206 209 220 217 200 203 196 198 200 130 209 240 226 226 223 221 220 209 197 188 181 183 195 214 210 206 203 204 204 208 204 199 200 201 206 215
210 208 201 204 204 209 208 202 208 212 206 198 201 197 201 174 150 182 244 237 229 233 228 217 216 214 209 207 189 186 195 216 227 224 221 226 223 211 203 205 208 215 228
206 206 206 207 206 207 205 207 211 205 203 208 203 205 203 186 163 180 229 229 224 225 218 215 216 216 215 213 200 195 201 210 215 222 227 230 226 208 206 210 207 214 228
206 209 209 210 208 206 208 214 212 201 199 206 205 204 206 198 170 187 223 216 218 222 223 223 225 219 178 219 208 202 200 203 186 196 216 185 147 175 199 199 196 203 219
211 213 212 212 212 212 215 219 208 201 204 206 207 212 211 213 175 189 224 219 215 212 214 219 223 230 188 235 222 219 219 215 205 196 202 199 199 188 197 210 208 215 222
212 212 213 212 214 215 213 213 206 201 201 207 211 217 217 213 185 190 218 225 221 220 223 225 211 167 195 234 255 240 236 237 221 216 213 213 209 205 207 217 218 225 228
206 207 210 210 207 208 209 208 205 202 204 207 208 216 222 213 206 199 212 236 259 233 233 230 207 175 212 234 241 226 229 237 227 222 220 218 216 216 216 216 220 223 234
206 208 209 207 204 204 200 198 201 204 212 216 213 220 226 224 206 196 207 219 238 243 241 234 217 204 216 223 210 212 220 227 224 225 227 230 228 226 216 214 219 221 231
212 211 210 208 204 202 201 202 208 210 213 218 219 225 231 229 222 213 212 213 215 227 230 199 202 219 229 228 217 220 230 233 231 232 233 232 225 221 220 218 219 215 223
217 215 213 209 205 207 208 213 218 221 224 225 226 225 225 231 228 226 223 222 224 225 222 226 228 227 230 231 233 231 227 225 227 230 231 230 228 227 227 223 228 226 229
220 217 216 211 207 210 211 218 227 241 233 236 247 246 239 242 207 209 226 232 218 199 215 227 230 232 234 235 235 234 231 229 230 231 233 233 232 232 231 228 226 231 237
228 221 217 218 216 216 217 221 229 229 226 232 232 240 248 234 211 209 210 211 205 198 222 234 236 237 241 243 242 241 240 236 233 233 234 235 235 237 235 233 231 234 238
234 227 222 223 223 223 223 225 228 230 231 236 227 222 226 225 215 209 195 186 208 216 234 239 241 241 244 245 244 245 246 242 235 234 236 237 236 236 236 237 235 236 239
233 231 226 227 228 229 229 228 229 231 233 234 228 215 208 209 206 200 187 212 221 225 233 239 242 243 243 244 245 244 244 244 239 234 235 236 236 237 239 242 242 238 241
235 233 232 229 226 227 228 228 229 230 232 233 232 226 202 202 216 213 217 230 234 236 238 240 242 244 243 244 245 244 244 245 243 239 237 235 234 236 239 241 243 241 240
236 225 216 226 229 229 229 230 229 231 233 235 238 230 212 219 226 227 228 233 236 239 241 242 242 243 243 243 244 244 245 246 244 242 240 238 235 237 240 240 242 244 245
238 232 223 223 226 231 234 234 232 233 233 237 242 229 208 228 234 235 234 236 240 243 244 246 246 242 241 242 244 246 247 249 247 246 242 241 240 238 238 239 240 241 242
243 240 236 229 226 226 233 237 236 237 238 237 236 234 225 233 238 239 240 241 241 244 244 243 246 246 244 243 243 243 246 250 248 248 247 244 243 241 238 237 238 240 240
248 243 241 239 233 233 235 238 239 240 241 241 237 236 235 236 239 242 244 246 246 246 246 245 247 248 249 249 248 247 248 252 250 246 246 246 245 245 242 240 240 239 239
250 244 243 242 238 239 241 243 243 243 241 240 240 240 239 239 240 243 244 245 247 249 250 250 249 249 251 251 251 251 249 246 244 247 246 243 243 242 243 244 242 242 240
255 247 242 242 240 240 240 243 245 245 244 243 243 243 243 243 245 246 248 249 250 250 251 251 251 250 252 252 255 257 250 240 237 239 242 243 243 243 243 243 245 242 242
Height
1535 1536 1537 1538 1539 1539 1539 1540 1540 1541 1541 1541 1542 1543 1544 1545 1545 1546 1547 1547 1548 1548 1548 1548 1548 1548 1548 1548 1548 1548 1549 1549 1549 1549 1549 1548 1548 1548 1547 1547 1547 1547 1546
1533 1534 1535 1536 1537 1537 1537 1538 1538 1538 1539 1539 1540 1541 1542 1542 1543 1544 1544 1545 1545 1546 1546 1546 1546 1546 1546 1546 1546 1546 1546 1547 1547 1546 1547 1547 1547 1546 1546 1546 1546 1546 1546
1531 1532 1533 1534 1534 1535 1535 1535 1536 1536 1537 1537 1538 1539 1540 1540 1541 1541 1542 1543 1543 1543 1544 1544 1544 1544 1544 1544 1544 1544 1544 1544 1544 1545 1545 1545 1545 1545 1545 1545 1545 1545 1545
1529 1529 1531 1531 1532 1532 1533 1533 1534 1534 1535 1536 1536 1537 1537 1538 1538 1539 1540 1540 1540 1541 1541 1541 1541 1541 1541 1542 1542 1542 1542 1542 1542 1542 1542 1543 1543 1543 1543 1544 1544 1544 1543
1526 1527 1528 1529 1529 1530 1530 1531 1531 1532 1533 1533 1534 1535 1535 1536 1536 1537 1537 1537 1538 1538 1538 1538 1538 1538 1538 1539 1539 1539 1540 1540 1540 1540 1540 1540 1541 1541 1541 1541 1542 1542 1542
1523 1524 1525 1526 1526 1527 1528 1528 1529 1529 1530 1531 1532 1533 1533 1533 1534 1534 1534 1534 1535 1535 1535 1535 1535 1535 1536 1536 1536 1536 1537 1537 1538 1538 1538 1538 1538 1539 1539 1539 1539 1540 1540
1520 1521 1522 1523 1524 1524 1525 1526 1526 1527 1528 1528 1530 1530 1531 1531 1531 1531 1532 1532 1532 1532 1532 1533 1533 1533 1533 1533 1533 1533 1534 1534 1535 1536 1535 1536 1536 1536 1536 1537 1537 1538 1538
1517 1518 1519 1520 1521 1522 1522 1523 1524 1524 1525 1526 1527 1528 1528 1529 1529 1529 1529 1530 1530 1530 1530 1530 1530 1530 1530 1530 1530 1531 1531 1531 1532 1532 1533 1533 1533 1534 1534 1534 1535 1535 1536
1513 1514 1515 1517 1518 1519 1519 1520 1521 1522 1522 1523 1524 1525 1525 1526 1526 1527 1527 1527 1527 1527 1527 1527 1527 1527 1527 1527 1528 1528 1528 1528 1529 1529 1529 1529 1530 1530 1530 1531 1531 1532 1532
1510 1511 1512 1514 1514 1515 1516 1517 1518 1519 1520 1521 1521 1522 1523 1523 1524 1524 1524 1525 1525 1525 1524 1524 1524 1524 1524 1524 1525 1525 1525 1526 1526 1526 1526 1526 1526 1526 1527 1528 1528 1529 1529
1507 1508 1509 1510 1511 1512 1514 1514 1516 1516 1517 1518 1519 1519 1520 1521 1521 1521 1522 1522 1522 1522 1521 1521 1521 1521 1521 1521 1521 1522 1522 1523 1523 1523 1523 1523 1523 1523 1523 1524 1524 1525 1526
1504 1505 1506 1507 1508 1509 1510 1511 1512 1513 1514 1515 1515 1516 1517 1517 1518 1518 1518 1518 1519 1519 1518 1518 1518 1518 1518 1518 1518 1518 1518 1519 1519 1520 1520 1519 1519 1519 1520 1520 1520 1521 1521
1501 1501 1502 1503 1504 1505 1506 1507 1509 1510 1510 1511 1512 1513 1513 1514 1514 1514 1515 1515 1515 1515 1515 1515 1515 1515 1514 1514 1514 1514 1515 1515 1515 1515 1515 1515 1515 1515 1516 1516 1516 1516 1516
1498 1499 1500 1500 1501 1502 1503 1504 1505 1506 1507 1508 1508 1509 1509 1510 1510 1510 1511 1511 1511 1511 1511 1511 1511 1511 1511 1510 1510 1510 1510 1511 1511 1511 1511 1511 1511 1511 1511 1511 1511 1511 1511
1495 1496 1496 1497 1498 1499 1500 1501 1502 1503 1504 1504 1505 1505 1506 1506 1506 1507 1507 1507 1507 1507 1507 1507 1507 1507 1507 1507 1506 1506 1506 1506 1506 1506 1507 1506 1506 1506 1506 1507 1507 1507 1507
1491 1492 1493 1494 1494 1495 1496 1497 1498 1499 1500 1500 1501 1502 1502 1502 1502 1502 1503 1503 1503 1503 1503 1503 1503 1503 1503 1503 1502 1502 1502 1502 1502 1502 1502 1502 1501 1502 1502 1502 1502 1502 1501
1488 1488 1489 1490 1491 1491 1492 1493 1494 1494 1495 1496 1496 1497 1498 1498 1498 1498 1498 1498 1498 1499 1499 1498 1498 1498 1498 1498 1498 1498 1497 1497 1497 1497 1497 1497 1497 1497 1497 1497 1496 1496 1496
1484 1485 1485 1486 1487 1488 1488 1489 1490 1490 1490 1490 1491 1492 1492 1493 1493 1493 1493 1493 1493 1493 1493 1493 1493 1493 1493 1493 1493 1492 1492 1492 1492 1492 1492 1492 1491 1491 1491 1491 1491 1491 1491
1480 1480 1481 1481 1482 1483 1484 1485 1485 1486 1486 1486 1486 1487 1487 1488 1488 1489 1489 1488 1488 1488 1488 1488 1488 1488 1488 1488 1487 1487 1487 1487 1486 1486 1486 1486 1486 1486 1485 1485 1485 1485 1485
1476 1476 1476 1477 1478 1479 1479 1480 1481 1481 1481 1481 1481 1482 1482 1483 1483 1483 1483 1483 1483 1483 1483 1483 1483 1483 1483 1482 1482 1482 1481 1481 1480 1480 1480 1480 1480 1480 1479 1479 1479 1479 1479
1472 1472 1472 1473 1473 1474 1475 1475 1476 1476 1476 1476 1477 1477 1477 1478 1477 1477 1478 1478 1478 1478 1478 1478 1477 1477 1477 1477 1476 1476 1475 1475 1475 1474 1474 1473 1473 1473 1473 1473 1473 1473 1473
1469 1468 1468 1468 1469 1469 1470 1470 1471 1471 1471 1471 1472 1472 1472 1472 1472 1472 1472 1472 1472 1472 1472 1472 1471 1471 1471 1470 1470 1470 1469 1469 1468 1468 1467 1467 1467 1467 1467 1467 1466 1466 1466
1464 1464 1464 1464 1464 1465 1465 1465 1466 1466 1466 1466 1466 1466 1466 1466 1466 1466 1466 1466 1466 1466 1466 1465 1465 1465 1464 1464 1464 1463 1463 1462 1462 1462 1461 1461 1461 1460 1460 1460 1460 1459 1459
1460 1459 1459 1459 1459 1460 1460 1460 1461 1461 1461 1461 1461 1461 1461 1461 1461 1460 1461 1460 1460 1460 1459 1459 1458 1458 1458 1457 1457 1456 1456 1456 1456 1455 1455 1455 1454 1454 1454 1453 1453 1453 1452
1455 1455 1455 1455 1455 1455 1455 1455 1456 1455 1455 1455 1455 1455 1455 1455 1455 1454 1454 1454 1454 1453 1453 1452 1451 1451 1451 1451 1450 1450 1449 1449 1449 1449 1448 1448 1447 1447 1447 1446 1446 1446 1446
1451 1451 1450 1450 1450 1450 1450 1450 1450 1450 1450 1450 1449 1449 1449 1449 1449 1448 1448 1448 1447 1447 1446 1445 1445 1444 1444 1444 1443 1443 1443 1443 1443 1443 1442 1441 1441 1440 1440 1440 1439 1439 1439